Lid_Strength_Index
2 3 3 2 2 2 2 2 2 1 1 1 1 1 1 1 1 3 6 5 5 -2 -1 5 5 5 6 9 9 9 13 15 14 13 13 12 12 10 9 9 8 8 8 8 7
2 2 3 2 2 2 2 2 2 2 1 1 1 1 1 1 5 6 2 0 -2 -3 7 6 7 7 9 10 10 11 14 13 11 11 14 12 11 10 10 9 10 9 8 7 7
2 2 2 2 2 2 2 2 2 2 1 1 1 1 1 2 8 7 -0 -2 -2 -1 5 6 7 9 11 11 11 12 13 11 11 10 11 12 11 10 11 12 10 10 9 8 8
2 2 2 2 2 2 2 2 2 2 2 1 1 1 1 5 12 8 -2 -2 -3 3 6 6 9 12 13 13 10 13 11 10 10 9 11 11 10 10 11 11 9 8 8 8 8
3 3 2 2 2 2 2 3 2 2 2 2 1 1 6 9 8 6 -3 -1 4 5 7 8 11 13 13 12 11 12 11 10 10 10 10 9 10 10 11 9 8 8 7 8 8
3 3 3 2 2 2 2 3 3 3 2 2 1 1 8 10 5 6 5 5 5 7 8 9 10 10 13 12 13 11 11 12 12 12 12 11 11 11 10 9 8 8 8 9 7
4 3 3 3 3 2 2 3 3 3 2 1 0 2 7 9 5 6 5 7 7 6 8 8 9 9 11 12 11 11 13 12 12 11 12 10 12 11 9 8 9 8 8 7 7
4 4 4 4 3 3 3 3 3 2 2 1 0 4 10 5 5 8 7 7 6 6 6 7 8 10 12 11 11 13 14 15 12 11 11 11 15 11 9 9 9 8 8 7 7
4 5 5 4 4 3 4 4 3 2 1 1 5 8 10 4 7 6 7 7 6 6 6 5 9 11 10 13 15 15 17 16 13 11 11 12 14 10 9 9 9 9 8 7 7
4 5 5 4 4 4 4 4 3 4 3 2 4 10 9 8 6 6 6 6 7 7 8 9 11 12 13 15 17 16 16 15 14 12 12 13 13 11 9 10 10 9 9 7 8
3 4 4 4 4 5 5 8 8 9 7 9 8 9 7 5 5 7 6 7 7 9 12 10 13 14 12 12 12 12 14 15 13 11 12 13 13 12 10 10 10 9 9 8 8
4 3 3 4 4 4 5 8 7 9 11 7 7 7 6 5 7 7 6 9 10 12 11 13 14 11 10 11 11 12 14 15 12 10 12 13 13 11 10 10 9 10 9 8 8
4 4 3 4 4 4 6 5 4 6 10 7 7 7 7 6 7 8 7 8 10 12 12 14 11 9 10 11 12 14 14 14 13 12 12 13 13 13 10 10 9 9 8 7 7
4 4 4 4 6 5 5 3 3 5 12 9 8 6 7 7 8 6 6 8 10 12 11 13 10 11 12 11 11 15 11 11 12 14 17 13 19 14 12 11 10 9 9 8 8
4 4 4 4 8 6 4 3 2 5 17 7 7 5 6 8 8 8 6 8 10 10 11 13 12 12 12 11 11 13 11 12 12 15 16 15 18 16 12 12 11 10 8 9 9
4 4 4 6 7 4 3 3 6 11 17 9 7 9 9 8 7 6 7 7 8 11 11 12 10 11 11 10 10 10 12 12 14 16 20 16 16 17 13 11 11 10 9 9 8
4 4 5 5 8 4 3 7 13 15 8 9 9 8 9 9 8 7 8 10 12 15 15 12 11 10 9 11 11 12 15 20 18 19 20 13 15 15 11 9 10 9 9 9 8
5 5 5 4 5 4 6 10 16 11 9 7 9 9 10 8 9 8 9 11 10 11 13 15 15 11 9 11 12 13 14 18 21 21 18 13 16 14 9 9 8 8 9 8 8
5 8 6 5 4 5 8 14 13 10 8 9 8 10 11 9 9 10 11 10 10 10 13 14 14 9 8 8 9 13 15 12 15 15 18 16 13 10 9 9 9 9 8 8 8
9 9 8 7 6 5 10 12 10 7 7 8 11 10 12 11 11 11 11 9 9 8 8 11 14 9 9 8 9 11 9 15 16 20 21 17 15 15 11 10 9 9 9 9 8
10 11 8 6 7 10 13 12 9 6 7 10 11 11 11 11 10 12 11 9 7 8 9 10 12 11 9 11 13 12 13 13 13 15 20 21 17 11 11 10 10 10 9 9 9
12 15 9 8 13 13 15 11 8 9 7 8 8 9 10 11 11 11 11 9 6 7 10 10 12 14 11 9 8 11 12 13 17 17 16 17 17 9 9 9 9 9 8 9 9
14 13 8 9 16 16 13 11 9 10 10 10 11 10 10 12 13 11 10 7 6 8 10 10 14 18 15 12 10 11 11 11 13 14 16 18 16 8 9 9 8 9 8 8 9
13 15 13 12 12 14 14 13 12 9 10 10 11 11 12 13 10 12 11 8 7 7 7 7 13 15 15 14 11 13 11 10 11 17 15 14 13 10 9 9 8 9 9 9 9
13 14 13 16 13 13 13 13 14 13 10 10 12 12 13 15 14 13 10 9 8 7 8 10 14 12 11 10 10 11 11 11 12 12 15 12 12 10 9 8 7 8 8 9 9
13 14 13 14 13 14 13 14 14 13 12 12 13 12 12 14 13 13 11 10 11 9 10 9 14 12 12 10 11 12 10 11 11 11 11 11 11 9 8 8 8 8 8 9 9
11 11 14 15 15 16 15 14 13 12 11 11 11 12 12 11 9 8 8 8 8 10 11 11 13 14 16 11 12 15 11 11 11 10 11 12 11 9 9 9 9 9 9 9 9